Location: Long Barn
(38.0930°N, 120.1344°W)
Time: 07:28:52
(UTC+00:00)

BlueWalker 3 - Pass Details

Date: 21 January 2026
Orbit: 450 x 461 km, 53.2° (Epoch: 11 February)

Event Time Altitude Azimuth Distance (km) Brightness Sun altitude
Rises 03:18:02 0° 250° (WSW) 2,446 6.7 -24.9°
Reaches altitude 10° 03:20:18 10° 261° (W) 1,576 5.5 -25.4°
Enters shadow 03:22:50 29° 302° (WNW) 853 3.5 -25.8°
